Regional Weather Roundup
Issued by NWS Wakefield, VA

Home | Current Version | Previous Version | Graphics & Text | Print | Product List | Glossary On
Versions: 1 2 3 4 5 6 7 8 9 10 11 12 13 14 15 16 17 18 19 20 21 22 23 24 25 26 27 28 29 30 31 32 33 34 35 36 37 38 39 40 41 42 43 44 45 46 47 48 49 50
000
ASUS41 KAKQ 270010
RWRAKQ

REGIONAL WEATHER ROUNDUP
NATIONAL WEATHER SERVICE WAKEFIELD VA
700 PM EST MON JAN 26 2015

Note: "fair" indicates few or no clouds below 12,000 feet with no
significant weather and/or obstructions to visibility. * = Denotes
station may not report precipitation (e.g., rain,snow,etc.),
thunder or fog.

VAZ042-051-052>054-056-270100-
NORTHERN VIRGINIA

CITY           SKY/WX    TMP DP  RH WIND       PRES   REMARKS
WASH NATIONAL  FLURRIES  34  27  75 N13       29.74F WCI  25
DULLES         LGT SNOW  27  24  89 N12       29.75R FOG     WCI  17
FORT BELVOIR   CLOUDY    32  28  85 N9        29.74S
QUANTICO       LGT RAIN  34  29  82 N13G20    29.74S WCI  25
FREDERICKSBRG* CLOUDY    34  34 100 N8        29.71S
STAFFORD*      CLOUDY    32  32 100 CALM      29.76S
WARRENTON      CLOUDY    32  32 100 N10       29.73S FOG     WCI  24
CULPEPER*      CLOUDY    32  28  86 N8        29.74S
MANASSAS*      CLOUDY    28  27  93 N10       29.75R WCI  19
LEESBURG*      LGT SNOW  28  28 100 N12G18    29.77S WCI  18
WINCHESTER     LGT SNOW  28  25  86 N3        29.77R
FRONT ROYAL*   CLOUDY    28  27  93 NE9       29.76R
LURAY*         CLOUDY    32  32 100 NE10      29.73R WCI  24
$$

VAZ048-049-060>072-079>083-270100-
CENTRAL AND SOUTH CENTRAL VIRGINIA

CITY           SKY/WX    TMP DP  RH WIND       PRES   REMARKS
RICHMOND       CLOUDY    36  34  92 N15       29.67R
CHESTERFIELD*  CLOUDY    36  25  64 N8        29.69R
PETERSBURG*    CLOUDY    38  37  94 N10       29.67S
HANOVER        CLOUDY    33  31  92 N7        29.70S
TAPPAHANNOCK*  RAIN      35  32  88 NW8       29.68R
QUINTON*       CLOUDY    35  33  92 NW6       29.67R
CHARLOTTSVILLE CLOUDY    33  30  88 NE8       29.71R FOG
GORDONSVILLE*  CLOUDY    32  29  90 NE6       29.72R
ORANGE*        CLOUDY    32  32 100 NW9       29.74R
LOUISA*        CLOUDY    34  32  93 N8        29.70R
BUMPASS*       CLOUDY    32  31  95 N5        29.70R
FARMVILLE*     CLOUDY    38  38 100 N9        29.68R
CREWE*         CLOUDY    37  35  95 N5        29.67R
FORT PICKETT*  CLOUDY    37  36  98 N8        29.67R
CHASE CITY*    CLOUDY    41  41 100 N6        29.67R
CLARKSVILLE*   CLOUDY    41  37  87 N7        29.66R
SOUTH HILL*    CLOUDY    40  38  93 N10       29.71R
LAWRENCEVILLE* CLOUDY    40  38  91 N5        29.64S
EMPORIA*       CLOUDY    41  37  87 NW10G16   29.66R
$$

VAZ088>098-270100-
SOUTHEAST VIRGINIA

CITY           SKY/WX    TMP DP  RH WIND       PRES   REMARKS
NORFOLK        CLOUDY    41  37  86 N14G23    29.60R
VIRGINIA BEACH CLOUDY    42  38  85 NW18      29.58R
NORFOLK NAVAL  CLOUDY    44  37  76 N17G25    29.62R
WEST POINT*    CLOUDY    39  33  79 NW8       29.67R
SALUDA*        CLOUDY    37  34  90 N10G16    29.64R
NEWPORT NEWS   CLOUDY    43  36  76 N12       29.63R
LANGLEY AFB    CLOUDY    40  37  88 N13       29.61R
FORT EUSTIS    CLOUDY    40  39  99 N10G16    29.62R
WILLIAMSBURG*    N/A     41  37  87 N10G16    29.65R
HR EXEC AP*    CLOUDY    41  36  81 NW10G17   29.63R
FRANKLIN*      CLOUDY    42  38  84 NW7       29.63R
WAKEFIELD      CLOUDY    40  35  83 N8        29.64R
$$

VAZ020-022-025-037-045-270100-
WEST CENTRAL AND SOUTHWEST VIRGINIA

CITY           SKY/WX    TMP DP  RH WIND       PRES   REMARKS
STAUNTON*      CLOUDY    33  31  94 NE6       29.71R FOG
WAYNESBORO*    CLOUDY    31  31 100 N7        29.68R VSB 1/2
HOT SPRINGS VA HVY SNOW  26  26 100 W18G24    29.57R VSB<1/4 WCI  13
LYNCHBURG      CLOUDY    37  35  92 N5        29.69R
DANVILLE       LGT RAIN  42  37  82 N7        29.68R
SOUTH BOSTON*  CLOUDY    40  37  87 N7        29.69R
MARTINSVILLE   CLOUDY    41  30  64 NW14G21   29.71R
ROANOKE        CLOUDY    37  27  67 W24       29.71R
BLACKSBURG     FLURRIES  29  24  80 W10G16    29.74R WCI  20
DUBLIN*        FLURRIES  31  26  81 W10G16    29.74R WCI  22
MARION*        CLOUDY    28  24  82 W12G24    29.78R WCI  18
HILLSVILLE*    FLURRIES  28  24  84 W13       29.70R WCI  17
RICHLANDS*     CLOUDY    24  22  89 NW9       29.79R
WISE*          CLOUDY    27  27 100 NW9       29.82R FOG
ABINGDON*      CLOUDY    31  25  79 NW14      29.82R WCI  20
$$

MDZ021>025-VAZ099-100-270100-
SOUTHERN MARYLAND AND THE DELMARVA PENINSULA

CITY           SKY/WX    TMP DP  RH WIND       PRES   REMARKS
PATUXENT RIVER CLOUDY    34  30  85 N16G23    29.68R WCI  24
BAY BRIDGE APT   N/A     32  27  80 N10G17    29.71F WCI  24
LEONARDTOWN    CLOUDY    32  30  93 N6        29.69R
DOVER          LGTSLEET  30  29  99 N15G24    29.68F WCI  19
GEORGETOWN     CLOUDY    33  30  88 N16G25    29.64S WCI  23
EASTON         FRZ RAIN  32  32 100 NE14G21   29.72S WCI  22
CAMBRIDGE      CLOUDY    36  34  93 N10G16    29.67R
SALISBURY      CLOUDY    37  34  89 N18G25    29.61R
OCEAN CITY     LGT RAIN  38  37  97 N21G32    29.58R
WALLOPS ISLAND LGT RAIN  39  37  92 N16G24    29.57R FOG
ACCOMACK*      CLOUDY    39  34  81 N14G20    29.59R
$$

NCZ012>017-030>032-270100-
NORTH CENTRAL AND EASTERN NORTH CAROLINA

CITY           SKY/WX    TMP DP  RH WIND       PRES   REMARKS
ROANOKE RAPIDS CLOUDY    45  39  81 N10G16    29.62S
RALEIGH        CLOUDY    45  39  79 VRB3      29.66R
ELIZABETH CITY CLOUDY    45  41  86 NW14      29.57R
AHOSKIE*       CLOUDY    46  39  75 CALM      29.62R
EDENTON*       CLOUDY    47  42  81 N5        29.58S
CURRITUCK*     CLOUDY    45  39  81 N15G21    29.58R
KILL DEVIL HLS CLOUDY    45  43  95 NW7       29.52S
MANTEO         CLOUDY    46  43  87 NW10G17   29.54S
CAPE HATTERAS  MOCLDY    48  46  93 NW10      29.53R
TARBORO*       CLOUDY    47  44  90 NW6       29.63R
GOLDSBORO      CLOUDY    49  48  98 NW3       29.61S
WASHINGTON     CLOUDY    46  44  91 N7        29.60R
GREENVILLE     CLOUDY    46  45  93 N8        29.65R
NEW BERN       LGT RAIN  50  43  77 N3        29.60R
WILMINGTON     CLOUDY    50  41  71 NW10      29.63R
$$

VAZ048-270100-
ELSEWHERE

CITY           SKY/WX    TMP DP  RH WIND       PRES   REMARKS
HARRISBURG PA  LGT SNOW  24  19  81 NE10      29.80S WCI  14
BALTIMORE      LGTSLEET  30  25  80 N9G17     29.73S
ANNAPOLIS      MIX PCPN  31  26  82 N13       29.72F WCI  21
ANDREWS AFB    FRZ DRZL  32  28  86 N10       29.71S WCI  24
PHILADELPHIA   FLURRIES  28  21  75 NE23G30   29.76F WCI  14
HENDERSON NC   CLOUDY    41  37  86 N6        29.66R
GREENSBORO     CLOUDY    42  37  82 NW8       29.66R
ROCKY MOUNT    CLOUDY    47  41  80 NW9       29.64R
$$

VAZ100-270100-
MARINE

STATION/POSITION TIME  TEMP    WIND        PRES    WAVE   SWELL
                       AIR SEA DIR/SP/G            HT/PER HT/PER
                 (UTC) (F)     (DEG/KT/KT) (MB)    (FT/S) (FT/S)
BRANDYWINE LGT   0000   33 37   40/ 26/ 32 1003.4R
CAPE MAY NJ      0000   35 39   40/ 12/ 21 1002.6R
LEWES DE         0000   36 39   20/ 21/ 27 1003.1R
15NM E FENWICK I 0000   41 42               999.5F  12/ 8
OCEAN-CITY-INLET 0000   39 40   30/ 21/ 30 1000.8R
WACHAPREAGUE VA  0000   42 43  350/  4/ 12 1001.3R
THOMAS POINT MD  0000   32 37   20/ 19/ 21 1006.9F
COVE POINT MD    0000   33      10/ 19/ 24 1004.8R
SOLOMONS ISLAND  0000      39                N/A
BISHOPS HEAD MD  0000   35 40  360/ 11/ 18 1003.3R
PINEY POINT MD   0000           10/ 13/ 14   N/A
CAMBRIDGE MD     0000   33 37   10/ 13/ 18 1004.6R
LEWISETTA VA     0000   36 39  360/  9/ 12 1004.3R
RAPPAHANNOCK LGT 0000          340/ 25/ 29 1002.7R
YORK RVR RNG VA  0000   39     350/ 21/ 24 1001.9R
YORKTOWN VA      0000   39 41  330/ 14/ 18 1002.9R
DOMINION TERM VA 0000   41     360/  3/ 10 1002.6R
KIPTOPEKE VA     0000      46  350/ 20/ 27   N/A
CHES BAY BRIDGE  0000   40 42  320/ 23/ 25 1001.6R
CAPE HENRY VA    0000   40     330/ 27/ 32 1000.4R
CHESAPEAKE LGHT  2300   42     330/ 26/ 27 1000.6R
WILLOUBY STN VA  0000   40     350/ 16/ 19 1003.0R
S CRANEY ISL VA  0000          350/ 10/ 14 1002.5R
CAPE HENRY BUOY  0000      45                N/A     5/ 4
CAPE CHARLES BUO 0000      43                N/A     4/ 5   2/ 8
OFFSHORE WE BUOY 0000      47                N/A     5/ 6   2/ 8
64NM E OF VA BCH 0000   48 52  330/ 23/ 29  997.3R   4/ 7   2/ 7
DUCK PIER NC     0000   44 44  330/ 24/ 27  999.0F
44100 DUCK FRF   0000      45                N/A     5/ 4   2/11
44056 DUCK FRF   0000      44                N/A     4/ 4   2/12
OREGON INLET NC  0000   46 46  310/ 11/ 15  999.6S
HATTERAS NC      0000   49 54  300/ 16/ 17 1000.1R
DIAMOND SHLS NC  0000   54 70  310/ 19/ 23  999.0R   4/ 7   3/ 7
CAPE LOOKOUT NC  2300   51     330/  9/ 10 1000.7R
$$


USA.gov is the U.S. government's official web portal to all federal, state and local government web resources and services.